| time (UTC) | temp F | wind direction | speed MPH | gust MPH | rain 1hr in | rain 24hr in | rain mn in | humidity % | barometer mb |
| 20260505080004 | 60 | 97 | 6.0 | 11.0 | 0.00 | 0.00 | 0.00 | 57 | 1009.1 |
| 20260505075004 | 59 | 97 | 5.0 | 11.0 | 0.00 | 0.00 | 0.00 | 57 | 1009.1 |
| 20260505074004 | 59 | 124 | 7.0 | 13.0 | 0.00 | 0.00 | 0.00 | 57 | 1009.1 |
| 20260505073004 | 59 | 99 | 7.0 | 11.0 | 0.00 | 0.00 | 0.00 | 58 | 1009.2 |
| 20260505072004 | 58 | 90 | 7.0 | 11.0 | 0.00 | 0.00 | 0.00 | 58 | 1009.3 |
| 20260505071003 | 58 | 126 | 6.0 | 11.0 | 0.00 | 0.00 | 0.00 | 59 | 1009.2 |
| 20260505070004 | 58 | 123 | 6.0 | 11.0 | 0.00 | 0.00 | 0.00 | 59 | 1009.3 |
| 20260505065004 | 57 | 108 | 7.0 | 11.0 | 0.00 | 0.00 | 0.00 | 58 | 1009.3 |
| 20260505064003 | 57 | 121 | 6.0 | 10.0 | 0.00 | 0.00 | 0.00 | 58 | 1009.4 |
| 20260505063004 | 57 | 123 | 6.0 | 11.0 | 0.00 | 0.00 | 0.00 | 57 | 1009.5 |
| 20260505062004 | 57 | 113 | 6.0 | 12.0 | 0.00 | 0.00 | 0.00 | 57 | 1009.5 |
| 20260505061003 | 57 | 121 | 5.0 | 10.0 | 0.00 | 0.00 | 0.00 | 56 | 1009.5 |
| 20260505060004 | 57 | 109 | 6.0 | 12.0 | 0.00 | 0.00 | 0.00 | 55 | 1009.4 |
| 20260505055004 | 57 | 94 | 5.0 | 10.0 | 0.00 | 0.00 | 0.00 | 55 | 1009.2 |
| 20260505054004 | 57 | 90 | 6.0 | 11.0 | 0.00 | 0.00 | 0.00 | 54 | 1009.1 |
| 20260505053004 | 57 | 95 | 6.0 | 13.0 | 0.00 | 0.00 | 0.00 | 55 | 1009.1 |
| 20260505052004 | 56 | 94 | 5.0 | 10.0 | 0.00 | 0.00 | 0.00 | 54 | 1009.2 |
| 20260505051003 | 56 | 89 | 5.0 | 10.0 | 0.00 | 0.00 | 0.00 | 55 | 1009.1 |
| 20260505041004 | 53 | 62 | 5.0 | 11.0 | 0.00 | 0.00 | 0.00 | 58 | 1009.1 |
| 20260505040004 | 53 | 65 | 5.0 | 9.0 | 0.00 | 0.00 | 0.00 | 58 | 1009.2 |
| 20260505035003 | 54 | 63 | 4.0 | 8.0 | 0.00 | 0.00 | 0.00 | 58 | 1009.3 |
| 20260505034003 | 54 | 66 | 3.0 | 6.0 | 0.00 | 0.00 | 0.00 | 57 | 1009.3 |
| 20260505033003 | 54 | 61 | 3.0 | 8.0 | 0.00 | 0.00 | 0.00 | 57 | 1009.3 |
| 20260505032003 | 54 | 69 | 4.0 | 9.0 | 0.00 | 0.00 | 0.00 | 57 | 1009.3 |
| 20260505031003 | 55 | 74 | 4.0 | 8.0 | 0.00 | 0.00 | 0.00 | 57 | 1009.3 |
| 20260505030004 | 55 | 71 | 3.0 | 7.0 | 0.00 | 0.00 | 0.00 | 57 | 1009.5 |
| 20260505025004 | 55 | 77 | 3.0 | 7.0 | 0.00 | 0.00 | 0.00 | 57 | 1009.6 |
| 20260505024004 | 55 | 71 | 3.0 | 7.0 | 0.00 | 0.00 | 0.00 | 56 | 1009.7 |
| 20260505023003 | 56 | 68 | 2.0 | 7.0 | 0.00 | 0.00 | 0.00 | 55 | 1009.9 |
| 20260505022003 | 56 | 77 | 2.0 | 8.0 | 0.00 | 0.00 | 0.00 | 54 | 1009.9 |
| 20260505021004 | 57 | 79 | 5.0 | 10.0 | 0.00 | 0.00 | 0.00 | 54 | 1009.9 |
| 20260505020004 | 57 | 82 | 4.0 | 9.0 | 0.00 | 0.00 | 0.00 | 53 | 1010.0 |
| 20260505015003 | 58 | 89 | 5.0 | 10.0 | 0.00 | 0.00 | 0.00 | 53 | 1010.0 |
| 20260505014004 | 58 | 85 | 6.0 | 13.0 | 0.00 | 0.00 | 0.00 | 53 | 1009.9 |
| 20260505013003 | 58 | 83 | 7.0 | 11.0 | 0.00 | 0.00 | 0.00 | 53 | 1009.9 |
| 20260505012003 | 58 | 83 | 7.0 | 12.0 | 0.00 | 0.00 | 0.00 | 53 | 1009.9 |
| 20260505011004 | 58 | 85 | 6.0 | 11.0 | 0.00 | 0.00 | 0.00 | 53 | 1010.0 |
| 20260505010004 | 58 | 81 | 5.0 | 10.0 | 0.00 | 0.00 | 0.00 | 52 | 1010.1 |
| 20260505005004 | 58 | 85 | 5.0 | 10.0 | 0.00 | 0.00 | 0.00 | 52 | 1010.2 |
| 20260505004003 | 59 | 83 | 6.0 | 13.0 | 0.00 | 0.00 | 0.00 | 52 | 1010.2 |
| 20260505003004 | 58 | 84 | 7.0 | 12.0 | 0.00 | 0.00 | 0.00 | 52 | 1010.3 |
| 20260505002004 | 58 | 83 | 6.0 | 9.0 | 0.00 | 0.00 | 0.00 | 52 | 1010.4 |
| 20260505001004 | 58 | 85 | 5.0 | 9.0 | 0.00 | 0.00 | 0.00 | 51 | 1010.5 |
| 20260505000004 | 58 | 81 | 6.0 | 9.0 | 0.00 | 0.00 | 0.00 | 52 | 1010.7 |
| 20260504235004 | 59 | 78 | 5.0 | 9.0 | 0.00 | 0.00 | 0.00 | 52 | 1010.7 |
| 20260504234004 | 59 | 79 | 4.0 | 8.0 | 0.00 | 0.00 | 0.00 | 51 | 1010.9 |
| 20260504233003 | 60 | 89 | 5.0 | 9.0 | 0.00 | 0.00 | 0.00 | 50 | 1011.0 |
| 20260504232004 | 60 | 82 | 5.0 | 10.0 | 0.00 | 0.00 | 0.00 | 50 | 1011.0 |
| 20260504231004 | 60 | 81 | 6.0 | 10.0 | 0.00 | 0.00 | 0.00 | 49 | 1011.1 |
| 20260504230004 | 61 | 88 | 6.0 | 10.0 | 0.00 | 0.00 | 0.00 | 49 | 1011.2 |
| 20260504225004 | 61 | 87 | 7.0 | 13.0 | 0.00 | 0.00 | 0.00 | 49 | 1011.2 |
| 20260504224004 | 61 | 82 | 8.0 | 12.0 | 0.00 | 0.00 | 0.00 | 49 | 1011.3 |
| 20260504223004 | 61 | 81 | 7.0 | 11.0 | 0.00 | 0.00 | 0.00 | 49 | 1011.4 |
| 20260504222004 | 61 | 82 | 7.0 | 11.0 | 0.00 | 0.00 | 0.00 | 49 | 1011.6 |
| 20260504221003 | 61 | 81 | 8.0 | 11.0 | 0.00 | 0.00 | 0.00 | 48 | 1011.6 |
| 20260504220005 | 62 | 81 | 8.0 | 12.0 | 0.00 | 0.00 | 0.00 | 48 | 1011.6 |
| 20260504215004 | 62 | 83 | 8.0 | 13.0 | 0.00 | 0.00 | 0.00 | 48 | 1011.7 |
| 20260504214004 | 62 | 83 | 8.0 | 12.0 | 0.00 | 0.00 | 0.00 | 48 | 1011.7 |
| 20260504213004 | 62 | 84 | 8.0 | 12.0 | 0.00 | 0.00 | 0.00 | 48 | 1011.7 |
| 20260504212004 | 62 | 84 | 8.0 | 13.0 | 0.00 | 0.00 | 0.00 | 47 | 1011.9 |
| 20260504211004 | 62 | 83 | 7.0 | 11.0 | 0.00 | 0.00 | 0.00 | 47 | 1012.0 |
| 20260504210004 | 63 | 82 | 8.0 | 12.0 | 0.00 | 0.00 | 0.00 | 47 | 1012.0 |
| 20260504205004 | 63 | 87 | 7.0 | 12.0 | 0.00 | 0.00 | 0.00 | 47 | 1012.0 |
| 20260504204004 | 63 | 88 | 6.0 | 11.0 | 0.00 | 0.00 | 0.00 | 47 | 1012.0 |
| 20260504203004 | 64 | 86 | 7.0 | 11.0 | 0.00 | 0.00 | 0.00 | 47 | 1012.1 |
| 20260504202004 | 64 | 80 | 7.0 | 11.0 | 0.00 | 0.00 | 0.00 | 47 | 1012.2 |
| 20260504201004 | 65 | 80 | 6.0 | 10.0 | 0.00 | 0.00 | 0.00 | 46 | 1012.3 |
| 20260504200004 | 65 | 89 | 5.0 | 10.0 | 0.00 | 0.00 | 0.00 | 44 | 1012.3 |
| 20260504195004 | 66 | 92 | 6.0 | 11.0 | 0.00 | 0.00 | 0.00 | 44 | 1012.3 |
| 20260504194004 | 66 | 94 | 6.0 | 12.0 | 0.00 | 0.00 | 0.00 | 44 | 1012.3 |
| 20260504193004 | 66 | 100 | 6.0 | 11.0 | 0.00 | 0.00 | 0.00 | 44 | 1012.3 |
| 20260504192004 | 66 | 106 | 5.0 | 11.0 | 0.00 | 0.00 | 0.00 | 44 | 1012.4 |
| 20260504191004 | 66 | 107 | 7.0 | 12.0 | 0.00 | 0.00 | 0.00 | 44 | 1012.3 |
| 20260504190004 | 66 | 109 | 6.0 | 11.0 | 0.00 | 0.00 | 0.00 | 45 | 1012.3 |
| 20260504185003 | 67 | 107 | 5.0 | 10.0 | 0.00 | 0.00 | 0.00 | 45 | 1012.2 |
| 20260504184004 | 67 | 104 | 6.0 | 10.0 | 0.00 | 0.00 | 0.00 | 45 | 1012.2 |
| 20260504183004 | 67 | 108 | 5.0 | 9.0 | 0.00 | 0.00 | 0.00 | 45 | 1012.2 |
| 20260504182004 | 68 | 103 | 4.0 | 9.0 | 0.00 | 0.00 | 0.00 | 45 | 1012.2 |
| 20260504181003 | 68 | 108 | 3.0 | 7.0 | 0.00 | 0.00 | 0.00 | 44 | 1012.2 |
| 20260504180004 | 69 | 106 | 5.0 | 9.0 | 0.00 | 0.00 | 0.00 | 44 | 1012.2 |
| 20260504175003 | 69 | 110 | 5.0 | 9.0 | 0.00 | 0.00 | 0.00 | 43 | 1012.2 |
| 20260504174003 | 70 | 110 | 5.0 | 9.0 | 0.00 | 0.00 | 0.00 | 43 | 1012.0 |
| 20260504173004 | 71 | 115 | 5.0 | 11.0 | 0.00 | 0.00 | 0.00 | 42 | 1012.1 |
| 20260504172004 | 71 | 130 | 6.0 | 11.0 | 0.00 | 0.00 | 0.00 | 39 | 1012.1 |
| 20260504171003 | 72 | 145 | 6.0 | 9.0 | 0.00 | 0.00 | 0.00 | 36 | 1012.1 |
| 20260504151004 | 74 | 161 | 7.0 | 14.0 | 0.00 | 0.00 | 0.00 | 40 | 1012.3 |
| 20260504141004 | 73 | 147 | 7.0 | 14.0 | 0.00 | 0.00 | 0.00 | 47 | 1013.0 |
| 20260504082003 | 62 | 121 | 7.0 | 14.0 | 0.00 | 0.00 | 0.00 | 59 | 1015.1 |
| 20260504081003 | 62 | 127 | 6.0 | 13.0 | 0.00 | 0.00 | 0.00 | 58 | 1015.0 |